Location: Huesca
(42.1318°N, 0.4078°W)
Time: 16:00:12
(UTC+02:00)

ACS3 Solar Sail - Pass Details

Date: 19 June 2024
Orbit: 992 x 1023 km, 97.4° (Epoch: 11 July)

Event Time Altitude Azimuth Distance (km) Brightness Sun altitude
Exits shadow 23:16:37 19° 153° (SSE) 2,205 6.0 -14.0°
Maximum altitude 23:21:16 68° 74° (ENE) 1,070 4.9 -14.5°
Drops below altitude 10° 23:27:27 10° 353° (N) 2,768 8.1 -15.2°
Sets 23:29:56 0° 351° (N) 3,719 9.0 -15.5°
